Date String (YYYY-MM-DD hh:mm:ss) UTC,Instrument flags,Ambient pressure (hPa),Sample flow (lpm),Bypass flow (lpm),Sample temperature (°C),Ambient temperature (°C),ASC tube jacket temperature (°C),LED temperature (°C),Box temperature (°C),Sample RH (%),Span deviation,Mass concentration (μg/m³),Mass concentration (μg/m³),Mass concentration (μg/m³)
DateTimeUTC,F1_M11,P_M11,Q1_M11,Q2_M11,T1_M11,T2_M11,T3_M11,T4_M11,T5_M11,U1_M11,ZSPAN_M11,X0_M11,X2_M11,X1_M11
2022-01-07 17:00:00,,0815.9,5.00,0.00,22.8,22.1,00.0,31.7,24.6,10.4,0003.4,0011.15,0006.20,0005.86
2022-01-07 17:01:00,,0816.0,5.00,0.00,22.8,22.2,00.0,31.7,24.6,10.4,0003.3,0011.22,0006.32,0005.97
2022-01-07 17:02:00,,0816.1,4.99,0.00,22.8,22.2,00.0,31.7,24.6,10.4,0003.4,0011.50,0006.48,0006.11
2022-01-07 17:03:00,,0816.0,5.00,0.00,22.8,22.2,00.0,31.7,24.6,10.3,0003.2,0011.60,0006.50,0006.14
2022-01-07 17:04:00,,0816.2,5.01,0.00,22.8,22.3,00.0,31.7,24.7,10.3,0002.8,0011.43,0006.27,0005.92
2022-01-07 17:05:00,,0816.1,4.99,0.00,22.9,22.3,00.0,31.7,24.7,10.3,0001.0,0010.11,0005.90,0005.55
2022-01-07 17:06:00,,0815.8,5.01,0.00,22.9,22.3,00.0,31.8,24.7,10.5,0001.9,0009.86,0005.69,0005.33
2022-01-07 17:07:00,,0815.7,5.00,0.00,22.9,22.4,00.0,31.8,24.8,10.5,0001.5,0009.74,0005.81,0005.45
2022-01-07 17:08:00,,0815.8,4.99,0.00,22.9,22.4,00.0,31.8,24.8,10.4,0001.1,0009.75,0005.88,0005.49
2022-01-07 17:09:00,,0816.0,5.01,0.00,23.0,22.4,00.0,31.8,24.8,10.3,-000.5,0009.53,0005.70,0005.33
2022-01-07 17:10:00,,0816.0,4.99,0.00,23.0,22.4,00.0,31.8,24.8,10.3,-001.9,0009.16,0005.41,0005.05
2022-01-07 17:11:00,,0815.7,5.00,0.00,23.0,22.4,00.0,31.8,24.8,10.3,-002.2,0008.85,0005.25,0004.89
2022-01-07 17:12:00,,0815.8,5.00,0.00,23.0,22.5,00.0,31.9,24.9,10.2,-001.9,0008.60,0005.08,0004.75
2022-01-07 17:13:00,,0816.2,4.99,0.00,23.1,22.5,00.0,31.9,24.9,10.3,-000.4,0008.26,0004.89,0004.59
2022-01-07 17:14:00,,0816.0,5.00,0.00,23.1,22.5,00.0,31.9,24.9,10.8,0000.0,0008.27,0004.90,0004.58
2022-01-07 17:15:00,,0816.0,5.01,0.00,23.1,22.5,00.0,31.9,24.9,11.1,-000.5,0008.16,0005.06,0004.70
2022-01-07 17:16:00,,0816.1,5.00,0.00,23.1,22.5,00.0,31.9,24.9,10.7,-000.3,0008.33,0005.17,0004.81
2022-01-07 17:17:00,,0815.8,4.99,0.00,23.1,22.5,00.0,32.0,24.9,10.5,0000.0,0008.41,0005.18,0004.80
2022-01-07 17:18:00,,0815.5,5.01,0.00,23.1,22.4,00.0,32.0,24.9,10.4,0000.0,0008.16,0005.01,0004.64
2022-01-07 17:19:00,,0815.5,5.00,0.00,23.1,22.4,00.0,32.0,24.9,10.5,0000.0,0008.24,0004.99,0004.60
2022-01-07 17:20:00,,0815.6,5.00,0.00,23.0,22.4,00.0,32.0,24.8,10.6,0000.0,0008.43,0005.15,0004.76
2022-01-07 17:21:00,,0815.4,5.01,0.00,23.0,22.3,00.0,32.0,24.8,10.7,0001.4,0008.60,0005.27,0004.88
2022-01-07 17:22:00,,0815.5,5.00,0.00,23.0,22.3,00.0,32.0,24.7,10.9,0002.2,0008.84,0005.42,0005.02
2022-01-07 17:23:00,,0815.4,5.00,0.00,22.9,22.3,00.0,32.0,24.7,11.0,0002.3,0008.98,0005.48,0005.06
2022-01-07 17:24:00,,0815.3,5.00,0.00,22.9,22.3,00.0,32.0,24.7,11.1,0000.5,0008.93,0005.44,0005.01
2022-01-07 17:25:00,,0815.4,5.00,0.00,22.9,22.2,00.0,31.9,24.7,11.0,0000.3,0008.69,0005.28,0004.87
2022-01-07 17:26:00,,0815.5,5.00,0.00,22.9,22.2,00.0,31.9,24.7,11.3,0000.4,0008.32,0005.03,0004.64
2022-01-07 17:27:00,,0815.4,5.00,0.00,22.9,22.2,00.0,31.9,24.7,11.6,0001.3,0008.04,0004.84,0004.48
2022-01-07 17:28:00,,0815.3,5.01,0.00,22.9,22.2,00.0,31.9,24.7,11.9,0001.2,0007.78,0004.68,0004.34
2022-01-07 17:29:00,,0815.3,5.00,0.00,22.9,22.2,00.0,31.9,24.6,11.7,0000.0,0007.61,0004.57,0004.26
2022-01-07 17:30:00,,0815.2,5.00,0.00,22.9,22.2,00.0,31.9,24.6,11.9,0000.0,0007.22,0004.28,0004.01
2022-01-07 17:31:00,,0815.3,5.01,0.00,22.9,22.2,00.0,31.9,24.6,12.4,0000.0,0006.54,0003.95,0003.69
2022-01-07 17:32:00,,0815.2,4.99,0.00,22.9,22.2,00.0,31.9,24.7,12.3,0000.0,0006.01,0003.73,0003.47
2022-01-07 17:33:00,,0815.4,5.02,0.00,22.9,22.2,00.0,31.9,24.7,12.4,0000.0,0006.00,0003.49,0003.25
2022-01-07 17:34:00,,0815.3,4.99,0.00,22.9,22.2,00.0,31.9,24.7,12.4,0000.0,0006.10,0003.47,0003.22
2022-01-07 17:35:00,,0815.2,5.00,0.00,22.9,22.2,00.0,31.9,24.7,11.8,0000.0,0006.16,0003.50,0003.24
2022-01-07 17:36:00,,0815.3,5.01,0.00,22.9,22.2,00.0,31.9,24.6,11.3,0000.0,0005.97,0003.42,0003.17
2022-01-07 17:37:00,,0815.0,4.99,0.00,22.9,22.2,00.0,31.9,24.6,11.1,0000.0,0005.80,0003.36,0003.12
2022-01-07 17:38:00,,0814.9,5.02,0.00,22.9,22.2,00.0,31.9,24.6,11.8,0000.0,0005.69,0003.33,0003.10
2022-01-07 17:39:00,,0815.0,4.99,0.00,22.8,22.2,00.0,31.9,24.6,11.6,0000.0,0005.55,0003.27,0003.02
2022-01-07 17:40:00,,0815.1,5.00,0.00,22.8,22.2,00.0,31.9,24.6,11.5,0000.0,0005.30,0003.15,0002.78
2022-01-07 17:41:00,,0815.0,5.01,0.00,22.8,22.2,00.0,31.9,24.6,11.2,0000.0,0005.01,0003.07,0002.67
2022-01-07 17:42:00,,0815.1,5.00,0.00,22.8,22.2,00.0,31.9,24.6,11.4,0000.0,0004.74,0002.94,0002.54
2022-01-07 17:43:00,,0815.2,4.99,0.00,22.8,22.2,00.0,31.9,24.6,11.1,0000.0,0004.56,0002.79,0002.42
2022-01-07 17:44:00,,0815.2,5.01,0.00,22.9,22.3,00.0,31.9,24.6,11.5,0000.0,0003.95,0002.71,0002.35
2022-01-07 17:45:00,,0815.1,5.00,0.00,22.9,22.3,00.0,31.9,24.6,11.1,0000.0,0003.41,0002.47,0002.15
2022-01-07 17:46:00,,0814.9,4.99,0.00,22.9,22.3,00.0,31.9,24.7,11.3,0000.0,0003.14,0002.23,0001.92
2022-01-07 17:47:00,,0815.0,5.01,0.00,22.9,22.3,00.0,31.9,24.7,11.2,0000.0,0003.09,0002.20,0001.90
2022-01-07 17:48:00,,0815.1,5.00,0.00,22.9,22.3,00.0,31.9,24.7,11.2,0000.0,0003.06,0002.18,0001.88
2022-01-07 17:49:00,,0814.9,4.99,0.00,22.9,22.3,00.0,31.9,24.7,11.2,0000.0,0003.04,0002.13,0001.80
2022-01-07 17:50:00,,0814.9,5.00,0.00,22.9,22.3,00.0,31.9,24.8,11.0,0000.0,0002.86,0001.96,0001.62
2022-01-07 17:51:00,,0814.9,5.00,0.00,22.9,22.4,00.0,31.9,24.8,11.0,0000.0,0002.71,0001.84,0001.51
2022-01-07 17:52:00,,0815.0,5.01,0.00,22.9,22.4,00.0,31.9,24.8,10.9,0000.0,0002.70,0001.78,0001.43
2022-01-07 17:53:00,,0815.2,5.00,0.00,22.9,22.4,00.0,31.9,24.8,11.0,0000.0,0002.51,0001.66,0001.35
2022-01-07 17:54:00,,0815.1,4.99,0.00,23.0,22.4,00.0,31.9,24.8,10.8,0000.0,0002.34,0001.54,0001.25
2022-01-07 17:55:00,,0814.9,5.00,0.00,23.0,22.5,00.0,31.9,24.8,10.4,0000.0,0002.17,0001.41,0001.13
2022-01-07 17:56:00,,0814.9,5.00,0.00,23.0,22.5,00.0,31.9,24.8,10.4,0000.0,0002.56,0001.26,0001.00
2022-01-07 17:57:00,,0814.8,4.99,0.00,23.0,22.5,00.0,31.9,24.8,10.3,0000.0,0003.30,0001.12,0000.89
2022-01-07 17:58:00,,0814.9,5.00,0.00,23.0,22.5,00.0,31.9,24.8,10.7,0000.0,0003.13,0000.99,0000.78
2022-01-07 17:59:00,,0814.6,4.99,0.00,23.0,22.5,00.0,31.9,24.9,10.4,0000.0,0003.02,0000.90,0000.69
